sat.trackr.live / text

‹ back to catalog

AMAZONAS 3

NORAD 39078 · 2013-006A

PAYLOAD ACTIVE UNKNOWN

§ Identity

Operator
Country
SPN
Launch date
2013-02-07
Launch site
FRGUI
Launch vehicle
Mass (kg)
RCS (m²)
318.74

Purposes: comms

External: N2YO · Heavens-Above · Gunter

§ Orbital elements

Epoch: 2026-09-19T11:33:00.595296Z

Period
1,436.05 min
Inclination
0.0363°
Eccentricity
0.0005081
Mean motion
1.00275132 rev/d
Perigee alt
35,764.2 km
Apogee alt
35,807.1 km
Semi-major
42,163.8 km
B*
0.0000e+0
RAAN
227.6101°
Arg perigee
325.5552°
Mean anomaly
277.4789°
Rev number
4,587

§ Raw data

AMAZONAS 31 39078U 13006A   26262.48125689 -.00000287  00000+0  00000+0 0  99942 39078   0.0363 227.6101 0005081 325.5552 277.4789  1.00275132 45870

JSON: /api/v1/satellites/39078 · /tle

For live sub-satellite position, see the globe view (requires WebGL).

§ Visibility from observer

Set your observer location to see the next 7 days of passes ≥ 10°. The values pass through the URL so the page stays shareable.

No JS? Fill the form by hand. The geolocation button needs JavaScript.